Regional Weather Roundup
Issued by NWS

Home | Current Version | Previous Version | Graphics & Text | Print | Product List | Glossary On
Versions: 1 2 3 4 5 6 7 8 9 10 11 12 13 14 15 16 17 18 19 20 21 22 23 24 25 26 27 28 29 30 31 32 33 34 35 36 37 38 39 40 41 42 43 44 45 46 47 48 49 50
000
ASUS43 KMPX 251610
RWRMN
WEATHER ROUNDUP FOR MINNESOTA
NATIONAL WEATHER SERVICE TWIN CITIES/CHANHASSEN MN
1100 AM CDT FRI MAY 25 2018


NOTE: "FAIR" INDICATES FEW OR NO CLOUDS BELOW 12,000 FEET WITH NO
SIGNIFICANT WEATHER AND/OR OBSTRUCTIONS TO VISIBILITY. N/A MEANS
CURRENT SKY AND/OR WEATHER CONDITIONS ARE NOT AVAILABLE.

MNZ060>063-068>070-251700-
   Twin Cities Metro

CITY           SKY/WX    TMP DP  RH WIND       PRES   REMARKS
TWIN CITIES    PTSUNNY   77  68  73 S9        29.79R
ST PAUL        FAIR      76  66  71 S9        29.79R
CRYSTAL        FAIR      79  66  64 S12       29.77R
BLAINE         PTSUNNY   81  66  61 S12       29.78S
LAKEVILLE      PTSUNNY   75  66  73 SW5       29.80S
EDEN PRAIRIE   FAIR      78  67  68 S13       29.78S
SOUTH ST PAUL  FAIR      75  68  77 S7        29.79S
LAKE ELMO      FAIR      72  66  83 S9        29.81S
$$
MNZ001>005-007-008-013>017-022>024-027-028-251700-
   Northwest Minnesota

CITY           SKY/WX    TMP DP  RH WIND       PRES   REMARKS
BEMIDJI        FAIR      80  58  47 W17       29.72S
HALLOCK        FAIR      79  59  50 W8        29.64S
ROSEAU         FAIR      79  64  61 W9        29.65S
WARROAD        FAIR      75  64  69 W12       29.65F
THIEF RVR FALL FAIR      76  62  62 SW10      29.69S
CROOKSTON      FAIR      81  57  44 W6        29.67F
FOSSTON        FAIR      79  55  44 SW10      29.71S
DETROIT LAKES  FAIR      81  54  39 W10       29.75S
MOORHEAD       FAIR      84  54  34 SW9       29.71S
PARK RAPIDS    FAIR      83  59  44 W10G17    29.73F
MAHNOMEN       FAIR      81  57  42 W14G20    29.71F
$$
MNZ006-009>011-018-025>026-251700-
   North Central Minnesota

CITY           SKY/WX    TMP DP  RH WIND       PRES   REMARKS
BAUDETTE       FAIR      79  58  48 W9G18     29.65S
FLAG ISLAND    FAIR      64  57  77 SE9       29.63S
INTL FALLS     FAIR      79  59  50 W13G18    29.66F
WASKISH          N/A     73  63  68 CALM      29.69S
BIG FORK       FAIR      81  61  50 SW9G17    29.70S
LONGVILLE      FAIR      79  61  53 SW5       29.73S
GRAND RAPIDS   FAIR      77  61  57 W7        29.74F
CRANE LAKE     FAIR      75  61  60 W6        29.68F
ORR            FAIR      79  61  53 W3        29.66F
COOK           FAIR      79  61  53 W9        29.70S
WALKER         FAIR      79  58  49 W10       29.72F
$$
MNZ012-019>021-037-251700-
   Northeast Minnesota

CITY           SKY/WX    TMP DP  RH WIND       PRES   REMARKS
DULUTH         FAIR      78  63  59 SW10      29.73F
ELY            FAIR      77  61  57 SW8       29.70S
HIBBING        FAIR      76  62  62 SW9       29.71F
EVELETH        FAIR      79  61  53 SW12      29.72F
DULUTH HARBOR  FAIR      77  66  69 SW17      29.71F
TWO HARBORS    FAIR      75  64  69 S10       29.70S
SILVER BAY     FAIR      75  63  64 S9        29.69S
GRAND MARAIS     N/A     43  41  93 SW3       29.70F
G MARAIS ARPRT FAIR      70  57  64 S5        29.72F
$$
MNZ029>031-032-039>041-046>048-054>057-064-251700-
   West Central Minnesota

CITY           SKY/WX    TMP DP  RH WIND       PRES   REMARKS
FERGUS FALLS   FAIR      82  59  44 W8        29.69F
WHEATON        SUNNY     84  54  34 SW8       29.75F
MORRIS         SUNNY     84  55  37 NW3       29.75S
ALEXANDRIA     FAIR      83  60  45 W6        29.78S HAZE
ELBOW LAKE     FAIR      82  57  42 W9        29.75F
WADENA         FAIR      79  61  53 W7        29.75S
GLENWOOD       FAIR      81  63  54 W6        29.78S
APPLETON       SUNNY     84  57  39 W8        29.76S
BENSON         SUNNY     84  59  42 CALM      29.77F
ORTONVILLE     MOSUNNY   84  57  39 W5        29.76S
MADISON        SUNNY     88  57  35 NW13G18   29.77S
WILLMAR        FAIR      84  57  39 W13       29.79S
$$
MNZ033>034-036-042>043-049>051-058-059-251700-
   Central Minnesota

CITY           SKY/WX    TMP DP  RH WIND       PRES   REMARKS
ST CLOUD       FAIR      80  63  55 SW8       29.75F
SAUK CENTRE    FAIR      82  61  49 W8        29.77S
PAYNESVILLE    FAIR      82  62  50 W8        29.77S
AITKIN         FAIR      77  61  57 SW7       29.73S
PINE RIVER     FAIR      79  57  47 W6        29.77S
BRAINERD       FAIR      79  62  56 SW7       29.75S
STAPLES        FAIR      82  55  39 W5        29.74S
LONG PRAIRIE   FAIR      81  59  47 SW8       29.77S
LITTLE FALLS   FAIR      77  63  61 SW3       29.76S
LITCHFIELD     FAIR      81  68  65 SE5       29.78S
BUFFALO        FAIR      77  65  65 S7        29.79S
MAPLE LAKE     FAIR      80  69  68 S3        29.78S
HUTCHINSON     FAIR      79  67  68 CALM      29.79S
$$
MNZ037-044-045-052-053-251700-
   East Central Minnesota

CITY           SKY/WX    TMP DP  RH WIND       PRES   REMARKS
PRINCETON      FAIR      82  66  57 S8        29.76S
MORA           FAIR      75  63  64 SW9       29.77S
CAMBRIDGE      FAIR      82  64  54 S10       29.77R
RUSH CITY      FAIR      77  65  66 S12G17    29.77R
MOOSE LAKE     FAIR      77  63  61 SW5       29.73S
HINCKLEY       FAIR      77  68  73 S10       29.76S
CLOQUET        FAIR      77  61  57 SW7G16    29.73F
MCGREGOR       FAIR      77  63  61 SW8       29.75S
$$
MNZ071>073-080-081-089-090-097-098-251700-
   Southwest Minnesota

CITY           SKY/WX    TMP DP  RH WIND       PRES   REMARKS
MONTEVIDEO     SUNNY     88  55  33 N8        29.76F
GRANITE FALLS  SUNNY    N/A N/A N/A W5        29.79F
CANBY          SUNNY     85  55  35 NW8       29.79S
MARSHALL       SUNNY     85  60  42 NW6       29.79S
REDWOOD FALLS  SUNNY     82  64  54 SW5       29.78S
OLIVIA         SUNNY     81  63  54 CALM      29.77S
PIPESTONE      SUNNY     82  59  44 CALM      29.83S
WINDOM         SUNNY     82  55  39 CALM      29.81F
WORTHINGTON      N/A     82  62  50 CALM      29.83F
JACKSON        SUNNY     79  63  57 W6        29.83F
TRACY          SUNNY     86  58  37 N7        29.80S
SLAYTON        LGT RAIN  85  56  38 W8        29.83S
$$
MNZ065>067-074>077-082>085-091>093-251700-
   South Central Minnesota

CITY           SKY/WX    TMP DP  RH WIND       PRES   REMARKS
MANKATO        FAIR      79  64  60 SW6       29.80F
NEW ULM        SUNNY     79  64  61 CALM      29.79S
ST JAMES       SUNNY     82  63  51 SW6       29.81S
FAIRMONT       SUNNY     80  66  62 SW10      29.82F
GLENCOE        FAIR      78  68  70 S3        29.78S
FARIBAULT      PTSUNNY   75  66  73 CALM      29.82R
OWATONNA       FAIR      79  66  65 SW12      29.82S
WASECA         CLOUDY    77  64  65 S12       29.83S
ALBERT LEA     FAIR      77  63  61 S6        29.83S
$$
MNZ078>079-086>088-094>096-251700-
   Southeast Minnesota

CITY           SKY/WX    TMP DP  RH WIND       PRES   REMARKS
ROCHESTER      FAIR      78  67  68 SE15      29.84F
RED WING       FAIR      77  64  65 S10       29.78F
STANTON        FAIR      77  67  70 S8        29.79S
DODGE CENTER   FAIR      77  64  65 S14       29.83F
WINONA         FAIR      77  64  65 SE10      29.83F
AUSTIN         FAIR      79  64  61 SW8       29.84S
PRESTON        FAIR      76  65  66 S7        29.87S
$$
ABBREVIATIONS USED IN REMARKS
   TC - TEMPERATURES IN CELSIUS
  WCI - WIND CHILL INDEX
   HX - HEAT INDEX
  VSB - VISIBILITY
$$




USA.gov is the U.S. government's official web portal to all federal, state and local government web resources and services.